EHI
0 0 0 0 0 0 0 0 0 0 0 0 0 0 0 0 0 0 0 0 0 0 0 0 0 0 0 0 0 0 0 0 0 0 0 0 0 0
0 0 0 0 0 0 0 0 0 0 0 0 0 0 0 0 0 0 0 0 0 0 0 0 0 0 0 0 0 0 0 0 0 0 0 0 0 0
0 0 0 0 0 0 0 0 0 0 0 0 0 0 0 0 0 0 0 0 0 0 0 0 0 0 0 0 0 0 0 0 0 0 0 0 0 0
0 0 0 0 0 0 0 0 0 0 0 0 0 0 0 0 0 0 0 0 0 0 0 0 0 0 0 0 0 0 0 0 0 0 0 0 0 0
0 0 0 0 0 0 0 0 0 0 0 0 0 0 0 0 0 0 0 0 0 0 0 0 0 0 0 0 0 0 0 0 0 0 0 0 0 0
0 0 0 0 0 0 0 0 0 0 0 0 0 0 0 0 0 0 0 0 0 0 0 0 0 0 0 0 0 0 0 0 0 0 0 0 0 0
0 0 0 0 0 0 0 0 0 0 0 0 0 0 0 0 0 0 0 0 0 0 0 0 0 0 0 0 0 0 0 0 0 0 0 0 0 0
0 0 0 0 0 0 0 0 0 0 0 0 0 0 0 0 0 0 0 0 0 0 0 0 0 0 0 0 0 0 0 0 0 0 0 0 0 0
0 0 0 0 0 0 0 0 0 0 0 0 0 0 0 0 0 0 0 0 0 0 0 0 0 0 0 0 0 0 0 0 0 0 0 0 0 0
0 0 0 0 0 0 0 0 0 0 0 0 0 0 0 0 0 0 0 0 0 0 0 0 0 0 0 0 0 0 0 0 0 0 0 0 0 0
0 0 0 0 0 0 0 0 0 0 0 0 0 0 0 0 0 0 0 0 0 0 0 0 0 0 0 0 0 0 0 0 0 0 0 0 0 0
0 0 0 0 0 0 0 0 0 0 0 0 0 0 0 0 0 0 0 0 0 0 0 0 0 0 0 0 0 0 0 0 0 0 0 0 0 0
0 0 0 0 0 0 0 0 0 0 0 0 0 0 0 0 0 0 0 0 0 0 0 0 0 0 0 0 0 0 0 0 0 0 0 0 0 0
0 0 0 0 0 0 0 0 0 0 0 0 0 0 0 0 0 0 0 0 0 0 0 0 0 0 0 0 0 0 0 0 0 0 0 0 0 0
0 0 0 0 0 0 0 0 0 0 0 0 0 0 0 0 0 0 0 0 0 0 0 0 0 0 0 0 0 0 0 0 0 0 0 0 0 0
0 0 0 0 0 0 0 0 0 0 0 0 0 0 0 0 0 0 0 0 0 0 0 0 0 0 0 0 0 0 0 0 0 0 0 0 0 0
0 0 0 0 0 0 0 0 0 0 0 0 0 0 0 0 0 0 0 0 0 0 0 0 0 0 0 0 0 0 0 0 0 0 0 0 0 0
0 0 0 0 0 0 0 0 0 0 0 0 0 0 0 0 0 0 0 0 0 0 0 0 0 0 0 0 0 0 0 0 0 0 0 0 0 0
0 0 0 0 0 0 0 0 0 0 0 0 0 0 0 0 0 0 0 0 0 0 0 0 0 0 0 0 0 0 0 0 0 0 0 0 0 0
0 0 0 0 0 0 0 0 0 0 0 0 0 0 0 0 0 0 0 0 0 0 0 0 0 0 0 0 0 0 0 0 0 0 0 0 0 0
0 0 0 0 0 0 0 0 0 0 0 0 0 0 0 0 0 0 0 0 0 0 0 0 0 0 0 0 0 0 0 0 0 0 0 0 0 0
0 0 0 0 0 0 0 0 0 0 0 0 0 0 0 0 0 0 0 0 0 0 0 0 0 0 0 0 0 0 0 0 0 0 0 0 0 0
0 0 0 0 0 0 0 0 0 0 0 0 0 0 0 0 0 0 0 0 0 0 0 0 0 0 0 0 0 0 0 0 0 0 0 0 0 0
Wind_Speed
4 4 3 3 3 3 3 3 3 4 5 3 2 2 2 1 2 2 2 3 4 4 4 4 4 4 4 4 4 4 3 3 4 4 4 5 5 5
4 4 4 3 3 3 3 3 3 3 4 3 2 2 2 2 3 2 2 3 4 4 4 5 5 5 5 5 5 5 4 4 4 4 5 5 5 5
4 5 5 4 3 3 3 3 3 3 4 3 2 2 2 3 2 2 2 2 2 4 4 5 5 6 6 6 6 6 5 5 5 5 5 5 5 5
6 6 6 4 5 4 3 4 4 3 3 4 3 2 3 3 2 2 2 2 2 3 4 5 5 6 6 6 6 6 6 5 5 5 5 5 5 5
6 6 6 6 6 4 4 4 4 4 3 4 4 3 2 2 2 2 2 2 2 3 4 4 4 5 6 6 6 6 6 6 6 5 5 5 5 5
6 6 6 7 7 6 5 5 4 4 4 4 3 3 2 2 2 2 2 2 2 1 2 3 4 5 6 6 6 6 6 6 6 6 6 5 5 5
6 6 7 8 9 8 6 5 5 4 4 4 4 3 3 3 3 3 3 2 2 1 1 2 2 2 3 4 5 6 6 6 6 6 5 5 5 5
6 6 6 7 9 10 10 10 9 7 6 5 4 5 5 4 3 3 3 2 3 2 2 2 2 2 2 3 5 6 6 6 5 5 5 5 5 5
6 6 6 6 8 6 8 9 9 10 10 7 7 7 6 5 5 5 5 4 4 3 2 3 2 3 2 2 4 5 6 6 6 5 5 5 5 5
6 6 7 6 7 7 7 7 7 7 8 7 7 7 7 6 7 6 5 3 1 2 2 2 2 2 2 1 4 5 5 5 6 5 5 5 5 5
6 6 7 7 9 10 7 7 6 6 8 9 9 9 9 8 6 4 4 4 3 3 2 2 2 1 1 2 2 3 3 4 5 5 5 5 5 4
5 5 8 9 10 10 7 6 7 6 5 5 6 7 6 7 8 7 6 5 3 3 3 3 2 1 1 1 1 1 1 2 3 4 4 5 4 2
5 4 5 9 10 10 9 6 8 7 5 5 5 4 4 4 5 5 5 5 5 4 3 3 2 2 2 1 1 1 1 1 1 1 2 3 4 2
5 4 5 9 10 10 7 7 9 7 4 4 4 4 4 4 3 3 3 3 3 4 4 3 3 3 3 2 2 1 1 1 1 1 1 2 2 3
5 7 8 10 9 7 7 7 5 4 4 4 4 4 3 3 3 2 2 1 1 1 2 3 3 3 3 3 3 2 1 1 1 1 1 1 1 1
5 6 8 8 7 7 5 4 3 3 4 4 3 2 2 3 3 3 3 2 2 1 1 2 3 4 3 3 3 3 2 2 2 1 1 1 1 1
4 3 3 3 3 3 2 2 2 2 2 2 2 2 2 2 2 2 3 2 3 3 2 1 1 1 2 3 3 3 2 2 2 2 1 1 2 2
5 3 3 3 3 3 2 2 2 2 2 2 2 2 2 2 2 2 3 3 3 3 3 2 2 1 1 1 1 3 2 2 2 2 1 1 2 2
4 3 3 3 3 2 2 2 2 2 2 2 2 2 2 2 3 3 3 3 3 3 3 3 3 3 3 2 1 2 3 2 2 1 2 2 3 3
3 3 3 3 2 2 2 2 2 1 1 1 2 2 2 2 2 3 3 4 3 3 2 2 3 3 4 4 2 1 2 3 2 2 1 1 2 3
3 3 3 3 3 2 2 2 2 1 1 1 1 2 2 2 2 2 3 4 3 3 4 3 3 3 2 3 2 1 1 1 2 2 2 1 1 1
3 3 3 2 2 2 2 2 2 1 1 1 2 2 2 2 2 3 3 3 3 3 3 2 2 2 2 3 3 3 1 0 0 1 1 2 2 3
3 3 3 3 2 2 2 2 2 2 1 1 2 2 1 1 2 2 2 2 3 3 3 2 2 1 2 3 3 2 2 1 1 1 1 2 2 3
Wind_Direction
250 257 266 270 268 269 255 232 230 254 258 247 253 249 244 220 213 227 221 215 219 227 228 227 229 228 224 223 226 225 229 236 233 223 219 219 224 233
253 252 260 266 265 264 260 257 248 242 257 256 259 266 262 259 230 238 224 217 221 222 231 230 224 223 221 221 223 223 227 229 232 226 223 222 226 236
254 251 256 260 259 260 256 254 256 247 253 270 281 279 260 247 251 247 223 217 221 226 237 236 225 222 219 220 221 221 223 225 228 229 229 230 232 236
244 245 249 250 249 251 250 250 253 250 244 255 269 264 259 237 229 236 249 245 221 224 233 237 233 224 220 221 220 219 220 220 224 230 229 232 237 240
242 240 242 240 244 244 248 248 251 255 246 237 248 253 260 235 223 243 245 249 252 231 231 233 235 231 228 227 225 222 217 216 219 225 227 231 235 242
247 242 240 236 238 237 240 242 245 249 248 231 234 239 248 234 209 214 236 239 250 249 245 243 241 245 238 235 231 225 220 220 221 221 223 224 229 238
251 246 243 241 243 241 239 234 232 235 240 231 227 231 228 213 218 218 225 225 250 228 226 240 232 246 245 241 233 224 221 220 220 219 220 221 225 232
264 256 252 247 245 247 245 243 235 231 231 232 231 223 225 227 226 218 207 214 246 210 202 242 209 232 245 231 227 224 220 217 215 216 217 219 224 231
264 259 257 253 252 241 244 247 244 243 239 234 233 230 223 220 215 217 216 219 236 208 194 239 223 232 245 239 226 220 214 214 213 216 216 221 227 233
271 262 253 247 245 243 235 235 237 240 240 236 233 234 230 217 213 216 218 220 248 222 195 232 238 245 248 240 233 219 214 215 215 215 220 226 231 234
277 272 264 248 247 252 246 236 241 249 254 251 249 245 240 227 216 199 202 200 227 235 206 206 227 248 250 239 230 214 215 221 222 223 230 232 231 233
278 275 275 270 257 251 242 236 240 243 242 248 250 244 235 219 217 210 203 202 210 229 208 185 195 165 263 266 218 206 207 223 229 236 237 235 230 220
277 278 275 278 271 260 257 245 246 248 238 235 236 230 223 217 215 214 210 202 203 221 197 171 181 182 191 242 251 219 200 208 226 244 238 230 232 223
275 275 280 283 279 270 262 261 260 257 237 229 225 221 221 217 209 202 206 209 209 210 194 182 193 194 187 215 232 223 231 214 195 208 221 228 237 250
280 279 285 286 282 273 266 269 260 240 231 229 227 227 224 210 193 178 173 165 149 190 192 199 193 191 191 207 211 202 219 239 210 192 197 222 229 222
289 285 286 286 279 275 275 269 252 234 228 230 231 229 223 202 193 183 187 180 178 228 232 200 189 187 201 207 204 211 201 196 205 219 217 236 245 232
299 288 277 279 269 265 256 250 242 230 238 231 218 217 218 210 204 189 186 185 190 198 198 181 139 157 188 183 193 203 201 202 199 202 195 242 257 239
299 283 278 276 274 273 272 265 250 230 224 218 209 207 213 209 209 200 184 184 190 192 189 180 152 122 90 349 225 192 193 199 192 195 196 218 262 257
296 285 282 279 278 275 274 273 265 242 220 217 211 206 210 208 197 190 187 187 190 191 193 185 177 172 185 219 265 198 179 187 181 204 212 212 243 260
302 296 291 288 285 281 275 272 268 253 227 220 215 210 211 211 202 196 196 193 190 190 197 199 196 193 196 195 191 217 201 182 180 199 220 224 251 265
303 296 296 298 298 293 287 279 267 254 246 230 220 216 210 204 206 203 200 194 190 190 200 212 213 191 146 121 128 183 207 212 208 196 190 193 245 265
306 299 300 303 304 300 299 298 288 273 252 237 229 221 213 203 200 198 191 185 188 192 198 188 156 158 164 170 183 184 176 135 18 345 288 218 194 208
308 304 302 304 303 301 300 302 297 281 263 247 239 229 212 203 205 196 181 175 174 171 164 161 159 156 165 165 172 174 171 171 141 72 336 321 286 266